JA3VQW-13 Hirakata JP current weather conditions

sailwx.info

Wind from 297 at 2 knots gusting 4

Air temperature 33.9° C
Dewpoint 14.4° C

Last reported at 2017-Jul-28 07:52 UTC.
Time now 2017-Jul-28 08:50 UTC

Location: N 34°48' E 135°40'.
View on Google Maps.

See reports from other nearby stations

  
Tides and Currents Weather Stations Pressure Air Temp Water Temp Dewpoint Dewpoint Depression Visibility Wind Speed Wind Dir Waves Ship Positions
date/time (UTC)wind fromknots sea level pressurealtimeterstation pressurevisibilityair tempwater tempwave heightnotes
2017-Jul-28 07:52 297 2 gusting 4 33.9
2017-Jul-28 07:22 272 0 gusting 4 34.4
2017-Jul-28 06:52 307 39.4
2017-Jul-28 06:25 315 40.0
2017-Jul-28 06:22 315 39.4
2017-Jul-28 05:52 292 38.9
2017-Jul-28 05:22 292 37.2
2017-Jul-28 05:10 135 35.6
2017-Jul-28 04:52 300 0 gusting 5 35.6
2017-Jul-28 04:22 225 36.7
2017-Jul-28 03:52 277 33.3
2017-Jul-28 03:22 269 1 gusting 1 33.3
2017-Jul-28 02:52 180 33.3
2017-Jul-28 02:22 315 33.3
2017-Jul-28 01:55 270 32.8
2017-Jul-28 01:52 315 32.8
2017-Jul-28 01:40 315 32.8
2017-Jul-28 01:22 135 32.2
2017-Jul-28 00:55 180 31.1
2017-Jul-28 00:52 180 31.1
2017-Jul-28 00:22 135 30.0
2017-Jul-28 00:10 135 30.0
2017-Jul-27 23:52 135 30.0
2017-Jul-27 23:25 315 29.4
2017-Jul-27 23:22 315 28.9
2017-Jul-27 22:52 315 28.3
2017-Jul-27 22:40 270 27.8
2017-Jul-27 22:22 270 27.8
2017-Jul-27 22:10 270 27.8
2017-Jul-27 21:55 270 27.8
2017-Jul-27 21:52 270 27.2
2017-Jul-27 21:40 270 27.2
2017-Jul-27 21:25 270 27.2
2017-Jul-27 21:22 270 27.2
2017-Jul-27 21:10 270 26.7
2017-Jul-27 20:55 270 26.7
2017-Jul-27 20:52 270 26.7
2017-Jul-27 20:40 270 26.7
2017-Jul-27 20:22 270 26.7
2017-Jul-27 20:10 270 26.7
2017-Jul-27 19:55 270 26.7
2017-Jul-27 19:52 270 26.7
2017-Jul-27 19:40 275 27.2
2017-Jul-27 19:25 292 27.2
2017-Jul-27 19:22 292 27.2
2017-Jul-27 19:10 270 27.2
2017-Jul-27 18:55 270 27.2
2017-Jul-27 18:52 270 27.2
2017-Jul-27 18:40 270 27.2
2017-Jul-27 18:25 292 27.2
2017-Jul-27 18:22 292 27.2
2017-Jul-27 18:10 291 27.2
2017-Jul-27 17:52 270 27.2
2017-Jul-27 17:40 270 27.2
2017-Jul-27 17:25 270 27.2
2017-Jul-27 17:22 270 27.2
2017-Jul-27 17:10 270 27.2
2017-Jul-27 16:55 292 27.8
2017-Jul-27 16:52 295 27.8
2017-Jul-27 16:40 315 27.8
2017-Jul-27 16:22 315 27.8
2017-Jul-27 16:10 045 27.8
2017-Jul-27 15:55 315 27.8
2017-Jul-27 15:52 315 27.8
2017-Jul-27 15:40 294 27.8
2017-Jul-27 15:25 270 27.8
2017-Jul-27 15:22 270 27.8
2017-Jul-27 15:10 270 28.3
2017-Jul-27 14:55 270 28.3
2017-Jul-27 14:52 270 28.3
2017-Jul-27 14:25 292 28.3
2017-Jul-27 14:22 292 28.3
2017-Jul-27 14:10 315 28.3
2017-Jul-27 13:52 315 28.3
2017-Jul-27 13:40 315 28.3
2017-Jul-27 13:25 315 28.3
2017-Jul-27 13:22 315 28.9
2017-Jul-27 12:52 315 28.9
2017-Jul-27 12:40 315 28.9
2017-Jul-27 12:25 292 28.9
2017-Jul-27 12:22 292 28.9
2017-Jul-27 11:55 315 28.9
2017-Jul-27 11:52 315 28.9
2017-Jul-27 11:40 066 28.9
2017-Jul-27 11:22 270 28.9
2017-Jul-27 11:10 270 28.9
2017-Jul-27 10:55 248 28.9
2017-Jul-27 10:52 265 28.9
2017-Jul-27 10:40 284 28.9
2017-Jul-27 10:25 270 29.4
2017-Jul-27 10:22 183 29.4
2017-Jul-27 10:10 248 29.4
2017-Jul-27 09:55 225 29.4
2017-Jul-27 09:52 225 29.4
2017-Jul-27 09:25 135 0 gusting 4 29.4
2017-Jul-27 09:22 270 29.4
2017-Jul-27 09:10 315 29.4
2017-Jul-27 08:55 292 29.4
2017-Jul-27 08:52 292 29.4
2017-Jul-27 08:40 300 30.0
2017-Jul-27 08:25 259 30.0
2017-Jul-27 08:22 270 30.0
2017-Jul-27 08:10 312 30.0
2017-Jul-27 07:55 252 31.1
2017-Jul-27 07:52 276 31.1
2017-Jul-27 07:40 206 31.7
2017-Jul-27 07:22 270 33.3
2017-Jul-27 06:52 108 0 gusting 1 33.9
2017-Jul-27 06:22 045 34.4
2017-Jul-27 05:52 270 35.0
2017-Jul-27 05:22 315 35.0
2017-Jul-27 04:52 315 36.1
2017-Jul-27 04:22 315 36.7
2017-Jul-27 03:52 315 37.8
2017-Jul-27 03:22 315 36.7
2017-Jul-27 02:52 292 35.0
2017-Jul-27 02:22 315 33.3
2017-Jul-27 01:52 315 29.4
2017-Jul-27 01:22 315 29.4
2017-Jul-27 00:52 315 29.4
2017-Jul-27 00:22 315 29.4
2017-Jul-26 23:52 315 29.4
2017-Jul-26 23:22 315 29.4
2017-Jul-26 22:52 315 29.4
2017-Jul-26 22:22 315 29.4
2017-Jul-26 21:52 315 29.4
2017-Jul-26 21:22 315 29.4
2017-Jul-26 20:52 315 29.4
2017-Jul-26 20:22 315 29.4
2017-Jul-26 19:52 315 29.4
2017-Jul-26 19:22 315 29.4
2017-Jul-26 18:52 315 29.4
2017-Jul-26 18:22 315 29.4
2017-Jul-26 17:52 315 29.4
2017-Jul-26 17:25 315 29.4
2017-Jul-26 17:22 315 29.4
2017-Jul-26 17:10 315 29.4
2017-Jul-26 16:55 315 29.4
2017-Jul-26 16:52 315 29.4
2017-Jul-26 16:40 315 29.4
2017-Jul-26 16:25 315 29.4
2017-Jul-26 16:22 315 29.4
2017-Jul-26 16:10 315 29.4
2017-Jul-26 15:55 315 29.4
2017-Jul-26 15:52 315 29.4
2017-Jul-26 15:40 315 29.4
2017-Jul-26 15:25 315 29.4
2017-Jul-26 15:22 315 29.4
2017-Jul-26 15:10 315 29.4
2017-Jul-26 14:52 315 29.4
2017-Jul-26 14:40 315 29.4
2017-Jul-26 14:25 315 29.4
2017-Jul-26 14:22 315 29.4
2017-Jul-26 13:52 315 29.4
2017-Jul-26 13:22 315 29.4
2017-Jul-26 12:52 315 29.4
2017-Jul-26 12:22 315 29.4
2017-Jul-26 11:52 315 29.4
2017-Jul-26 11:22 315 29.4
2017-Jul-26 10:52 315 29.4
2017-Jul-26 10:22 315 29.4
2017-Jul-26 09:52 315 29.4
2017-Jul-26 09:22 315 29.4
2017-Jul-26 08:52 315 29.4
2017-Jul-26 08:22 315 29.4